Location: Akgöl Batakl???
(38.9482°N, 31.8837°E)
Time: 11:31:35
(UTC+00:00)

SL-16 R/B - Pass Details

Date: 08 May 2026
Orbit: 841 x 844 km, 71.0° (Epoch: 6 June)

Event Time Altitude Azimuth Distance (km) Brightness Sun altitude
Rises 19:24:37 0° 348° (NNW) 3,411 6.4 -24.4°
Reaches altitude 10° 19:27:34 10° 2° (N) 2,472 5.3 -24.8°
Maximum altitude 19:32:06 24° 55° (NE) 1,680 3.7 -25.3°
Enters shadow 19:32:51 23° 68° (ENE) 1,707 3.6 -25.4°
